Regional Weather Roundup
Issued by NWS

Home | Current Version | Previous Version | Graphics & Text | Print | Product List | Glossary On
Versions: 1 2 3 4 5 6 7 8 9 10 11 12 13 14 15 16 17 18 19 20 21 22 23 24 25 26 27 28 29 30 31 32 33 34 35 36 37 38 39 40 41 42 43 44 45 46 47 48 49 50
000
ASUS43 KBIS 190910
RWRND

NORTH DAKOTA REGIONAL WEATHER ROUNDUP
NATIONAL WEATHER SERVICE BISMARCK ND
300 AM CST THU JAN 19 2017

NOTE: "FAIR" INDICATES FEW OR NO CLOUDS BELOW 12,000 FEET WITH NO
SIGNIFICANT WEATHER AND/OR OBSTRUCTIONS TO VISIBILITY.


NDZ001>003-009>011-017-191000-
NORTHWEST NORTH DAKOTA

CITY           SKY/WX    TMP DP  RH WIND       PRES   REMARKS
WILLISTON      FAIR      22  20  92 S3        29.53R
MINOT          FAIR      32  25  75 S8        29.50F
MINOT AFB      CLOUDY    26  22  84 S6        29.49F WCI  20
$$

NDZ018>021-031>035-040>046-191000-
SOUTHWEST NORTH DAKOTA

CITY           SKY/WX    TMP DP  RH WIND       PRES   REMARKS
BISMARCK       FAIR      14   8  77 E3        29.57F
DICKINSON      FAIR      23  17  78 W3        29.51S
GARRISON         N/A     20  16  84 N3        29.53S
HETTINGER ARPT CLOUDY    19  15  84 NW5       29.56S WCI  12
$$

NDZ004>008-012>016-024-026-027-054-191000-
NORTHEAST NORTH DAKOTA

CITY           SKY/WX    TMP DP  RH WIND       PRES   REMARKS
GRAND FORKS    CLOUDY    27  19  72 S14       29.60S WCI  16
GRND FRKS AFB  CLOUDY    24  18  78 S12       29.59R WCI  13
DEVILS LAKE    FAIR      29  21  72 S6        29.56S
$$

NDZ022-023-025-028>030-036>039-047>053-191000-
SOUTHEAST NORTH DAKOTA

CITY           SKY/WX    TMP DP  RH WIND       PRES   REMARKS
FARGO          CLOUDY    28  25  88 S13       29.65R WCI  17
JAMESTOWN      FAIR      24  18  77 S6        29.58R WCI  17
$$





USA.gov is the U.S. government's official web portal to all federal, state and local government web resources and services.